This demonstration page uses our WeatherBlox Daily Observations layout. Learn more.

39.01783, -85.05884

Hourly Observations for August 15, 2019

Temp ( °F °C ) Dew Point ( °F °C ) Humidity (%) Winds ( mph kmh ) Pressure ( in mb ) Visibility ( mi km ) Precip ( " mm )
12:52 am 00:52 Mostly Clear 73 22.8 63 17.2 71 71 W 8 13 29.91 1013 10 16.09344 0 0
1:52 am 01:52 Clear 71 21.7 62 16.7 73 73 Calm 29.91 1013 10 16.09344 0 0
2:52 am 02:52 Mostly Clear 70 21.1 62 16.7 76 76 Calm 29.91 1013 10 16.09344 0 0
3:52 am 03:52 Clear 66 18.9 62 16.7 87 87 S 3 6 29.88 1012 10 16.09344 0 0
4:52 am 04:52 Clear 66 18.9 62 16.7 87 87 Calm 29.88 1012 10 16.09344 0 0
5:52 am 05:52 Clear 64 17.8 61 16.1 90 90 WSW 5 7 29.88 1012 10 16.09344 0 0
6:52 am 06:52 Mostly Sunny 66 18.9 61 16.1 84 84 WSW 3 6 29.91 1013 10 16.09344 0 0
7:52 am 07:52 Mostly Sunny 66 18.9 63 17.2 90 90 S 3 6 29.91 1013 10 16.09344 0 0
8:52 am 08:52 Mostly Sunny 72 22.2 64 17.8 76 76 WSW 3 6 29.94 1014 10 16.09344 0 0
9:52 am 09:52 Partly Cloudy 75 23.9 64 17.8 69 69 W 6 9 29.94 1014 10 16.09344 0 0
10:52 am 10:52 Mostly Sunny 79 26.1 63 17.2 58 58 W 6 9 29.91 1013 10 16.09344 0 0
11:52 am 11:52 Mostly Cloudy 81 27.2 60 15.6 49 49 SW 10 17 29.94 1014 10 16.09344 0 0
12:52 pm 12:52 Mostly Cloudy 82 27.8 60 15.6 47 47 WSW 8 13 29.94 1014 10 16.09344 0 0
1:52 pm 13:52 Partly Cloudy 83 28.3 59 15 44 44 NW 14 22 29.91 1013 10 16.09344 0 0
2:05 pm 14:05 Partly Cloudy 85 29.4 60 15.6 43 43 WNW 8 13 29.91 1013 10 16.09344 0 0
2:52 pm 14:52 Partly Cloudy 85 29.4 57 13.9 39 39 WNW 8 13 29.91 1013 10 16.09344 0 0
3:52 pm 15:52 Mostly Cloudy 83 28.3 58 14.4 43 43 W 10 17 29.91 1013 10 16.09344 0 0
4:52 pm 16:52 Partly Cloudy 84 28.9 59 15 43 43 W 8 13 29.91 1013 10 16.09344 0 0
5:52 pm 17:52 Partly Cloudy 84 28.9 59 15 43 43 W 10 17 29.91 1013 10 16.09344 0 0
6:52 pm 18:52 Mostly Sunny 83 28.3 59 15 44 44 WNW 7 11 29.91 1013 10 16.09344 0 0
7:52 pm 19:52 Mostly Sunny 80 26.7 59 15 49 49 W 7 11 29.91 1013 10 16.09344 0 0
8:52 pm 20:52 Mostly Clear 74 23.3 60 15.6 62 62 W 6 9 29.91 1013 10 16.09344 0 0
9:52 pm 21:52 Clear 73 22.8 60 15.6 64 64 W 3 6 29.91 1013 10 16.09344 0 0
10:52 pm 22:52 Clear 72 22.2 60 15.6 66 66 W 6 9 29.94 1014 10 16.09344 0 0
11:52 pm 23:52 Clear 70 21.1 60 15.6 71 71 W 6 9 29.94 1014 10 16.09344 0 0

Powered by AerisWeather